DW6619 Weather Reports


time (UTC)temp
C
wind
direction
speed
KPH
gust
KPH
rain 1hr
cm
rain 24hr
cm
rain mn
cm
humidity
%
barometer
mb
20260507151528 13 82 0.0 0.0 0.00 0.36 0.23 58 1012.3
20260507150017 12 80 0.0 0.0 0.00 0.46 0.23 60 1012.4
20260507144541 12 199 0.0 0.0 0.00 0.46 0.23 61 1012.6
20260507143032 12 360 0.0 0.0 0.00 0.46 0.23 62 1012.7
20260507141528 12 9 0.0 0.0 0.00 0.46 0.23 61 1012.7
20260507140017 12 40 0.0 0.0 0.00 0.71 0.23 62 1012.9
20260507134516 12 150 0.0 0.0 0.00 0.71 0.23 67 1012.9
20260507133010 12 360 0.0 0.0 0.00 0.71 0.23 71 1013.1
20260507131525 12 5 0.0 0.0 0.00 0.71 0.23 71 1013.1
20260507130021 12 360 0.0 0.0 0.00 0.81 0.23 71 1012.8
20260507124540 12 360 0.0 0.0 0.00 0.81 0.23 71 1012.8
20260507123035 12 351 0.0 0.0 0.00 0.81 0.23 73 1012.6
20260507121512 12 289 0.0 0.0 0.00 0.81 0.23 78 1012.7
20260507120027 12 355 0.0 0.0 0.00 0.86 0.23 79 1012.7
20260507114521 12 83 0.0 0.0 0.00 0.86 0.23 79 1012.6
20260507113023 12 360 0.0 0.0 0.00 0.86 0.23 79 1012.3
20260507111517 12 85 0.0 0.0 0.00 0.86 0.23 83 1012.1
20260507110033 11 49 0.0 0.0 0.00 0.86 0.23 86 1012.2
20260507104530 12 61 0.0 0.0 0.00 0.86 0.23 87 1012.3
20260507103021 11 9 0.0 0.0 0.00 0.86 0.23 87 1011.9
20260507101543 11 9 0.0 0.0 0.00 0.86 0.23 87 1011.8
20260507100013 11 9 0.0 0.0 0.00 0.86 0.23 87 1011.7
20260507094513 11 328 0.0 0.0 0.00 0.86 0.23 87 1011.5
20260507093013 12 325 0.0 0.0 0.00 0.86 0.23 87 1011.7
20260507091511 12 19 0.0 0.0 0.00 0.86 0.23 87 1011.2
20260507090011 11 20 0.0 0.0 0.00 0.86 0.23 87 1011.3
20260507084528 12 17 0.0 0.0 0.00 0.86 0.23 87 1011.4
20260507083024 12 355 0.0 0.0 0.00 0.86 0.23 87 1011.2
20260507081542 12 329 0.0 0.0 0.00 0.86 0.23 87 1011.2
20260507080041 12 329 0.0 0.0 0.00 0.86 0.23 87 1011.0
20260507074523 12 63 0.0 0.0 0.00 0.86 0.23 87 1010.6
20260507073032 12 211 0.0 0.0 0.00 0.86 0.23 87 1010.8
20260507071528 12 5 0.0 0.0 0.00 0.86 0.23 87 1010.6
20260507070017 12 103 0.0 0.0 0.00 0.86 0.23 87 1010.8
20260507064509 12 5 0.0 0.0 0.00 0.86 0.23 87 1010.7
20260507063025 12 332 0.0 0.0 0.00 0.86 0.23 87 1010.9
20260507061520 13 46 0.0 0.0 0.03 0.86 0.23 87 1010.9
20260507060028 13 35 0.0 0.0 0.08 0.86 0.23 87 1010.6
20260507054511 13 337 0.0 0.0 0.10 0.86 0.23 87 1010.5
20260507053029 13 338 0.0 0.0 0.10 0.84 0.20 87 1010.8
20260507051525 13 61 0.0 0.0 0.15 0.84 0.20 87 1010.6
20260507050044 13 24 0.0 0.0 0.18 0.79 0.15 87 1010.5
20260507044517 14 68 0.0 0.0 0.23 0.76 0.13 87 1010.7
20260507043032 15 284 0.0 0.0 0.20 0.74 0.10 87 1010.7
20260507041523 15 97 0.0 0.0 0.13 0.66 0.03 86 1010.6
20260507040020 16 65 0.0 0.0 0.08 0.61 0.61 85 1010.3
20260507034521 16 96 0.0 0.0 0.00 0.53 0.53 82 1010.2
20260507033015 17 351 0.0 0.0 0.00 0.53 0.53 80 1010.2
20260507031529 17 84 0.0 0.0 0.00 0.53 0.53 80 1010.4
20260507030026 17 327 0.0 0.0 0.00 0.53 0.53 83 1009.8
20260507024524 18 83 0.0 0.0 0.00 0.53 0.53 84 1009.3
20260507023014 18 342 0.0 0.0 0.00 0.53 0.53 84 1009.6
20260507021509 18 320 0.0 0.0 0.00 0.53 0.53 84 1009.5
20260507020024 18 360 0.0 0.0 0.00 0.53 0.53 84 1009.1
20260507014524 19 24 0.0 0.0 0.00 0.53 0.53 85 1009.5
20260507013021 20 304 0.0 0.0 0.00 0.53 0.53 84 1009.0
20260507011541 20 265 0.0 0.0 0.00 0.53 0.53 83 1009.4
20260507010009 20 267 0.0 0.0 0.00 0.53 0.53 82 1009.5
20260507004533 20 267 0.0 0.0 0.00 0.53 0.53 82 1009.0
20260507003030 20 232 0.0 0.0 0.00 0.53 0.53 82 1009.0
20260507001543 20 244 0.0 0.0 0.00 0.53 0.53 82 1009.0
20260507000022 20 253 0.0 0.0 0.00 0.53 0.53 81 1008.8
20260506234522 20 261 0.0 0.0 0.00 0.53 0.53 80 1008.5
20260506233019 20 194 0.0 0.0 0.00 0.53 0.53 80 1008.1
20260506231510 21 200 0.0 0.0 0.00 0.53 0.53 80 1008.1
20260506230035 21 198 0.0 0.0 0.00 0.53 0.53 79 1007.9
20260506224530 21 198 0.0 0.0 0.00 0.53 0.53 79 1008.0
20260506223049 21 207 0.0 0.0 0.00 0.53 0.53 78 1007.8
20260506221524 21 169 0.0 0.0 0.00 0.53 0.53 78 1007.7
20260506220018 21 200 0.0 0.0 0.00 0.53 0.53 78 1008.1
20260506214517 21 200 0.0 0.0 0.00 0.53 0.53 78 1008.0
20260506213033 21 228 1.6 9.7 0.00 0.53 0.53 78 1008.0
20260506211520 21 184 0.0 0.0 0.00 0.53 0.53 78 1008.0
20260506210015 21 188 0.0 14.5 0.00 0.53 0.53 79 1007.9
20260506204548 21 266 0.0 1.6 0.00 0.53 0.53 78 1007.8
20260506203047 21 177 0.0 11.3 0.00 0.53 0.53 78 1007.6
20260506201541 21 215 0.0 17.7 0.00 0.53 0.53 79 1007.7
20260506200033 21 252 0.0 0.0 0.00 0.53 0.53 80 1007.7
20260506194531 20 217 0.0 0.0 0.00 0.53 0.53 80 1007.9
20260506193020 20 190 0.0 4.8 0.00 0.53 0.53 82 1007.9
20260506191519 20 194 0.0 6.4 0.00 0.53 0.53 82 1008.0
20260506190011 20 233 0.0 0.0 0.00 0.53 0.53 83 1008.4
20260506184523 19 191 1.6 19.3 0.00 0.53 0.53 82 1008.6
20260506183041 19 219 0.0 17.7 0.00 0.53 0.53 82 1008.6
20260506181512 19 251 0.0 14.5 0.00 0.53 0.53 83 1008.5
20260506180027 18 246 3.2 14.5 0.00 0.53 0.53 84 1008.8
20260506174521 18 207 0.0 9.7 0.00 0.53 0.53 84 1008.8
20260506173018 18 188 0.0 0.0 0.00 0.53 0.53 84 1008.8
20260506171521 18 150 1.6 12.9 0.00 0.53 0.53 85 1008.9
20260506170037 18 227 3.2 16.1 0.00 0.53 0.53 85 1009.1
20260506164511 18 157 3.2 20.9 0.00 0.53 0.53 86 1009.1
20260506163024 17 165 6.4 19.3 0.00 0.53 0.53 86 1009.2
20260506161517 17 196 1.6 17.7 0.03 0.53 0.53 86 1009.2
20260506160010 16 143 1.6 14.5 0.03 0.53 0.53 86 1009.4
20260506154542 16 217 0.0 12.9 0.05 0.53 0.53 85 1009.4
20260506153017 16 191 0.0 8.0 0.10 0.53 0.53 84 1009.4